Home > Weather > Völkermarkt > Past weeks

Flag for Austria Past Weather in Völkermarkt, Carinthia, Austria — Yesterday and Last 2 Weeks

Now
82 °F

Passing clouds.


Feels Like: 81 °F
Forecast: 60 / 85 °F
Wind: N/A

Location: Klagenfurt-Flughafen

Current Time: Jul 29, 2016 at 5:59:30 PM

Latest Report: Jul 29, 2016 at 5:00 PM


Visibility: 25 mi

Pressure: 29.88 "Hg

Humidity: 38%

Dew Point: 54 °F

Location of VölkermarktLocation

Past Weather in Völkermarkt — Graph

°F

Völkermarkt Temperature Yesterday

Maximum temperature yesterday: 77 °F (at 3:00 PM)
Minimum temperature yesterday: 64 °F (at 6:00 AM)
Average temperature yesterday: 68 °F

High & Low Weather Summary for the Past Weeks

 TemperatureHumidityPressure
High86 °F (Jul 20, 5:00 PM)96% (Jul 27, 4:00 AM)30.20 "Hg (Jul 27, 4:00 AM)
Low48 °F (Jul 16, 6:00 AM)31% (Jul 14, 5:00 PM)29.86 "Hg (Jul 14, 4:00 PM)
Average69 °F71%30.04 "Hg
* Reported Jul 14 4:00 PM — Jul 29 4:00 PM, Völkermarkt, Weather by CustomWeather, © 2016

Note: Actual official high and low records may vary slightly from our data, if they occured in-between our weather recording intervals... More about our weather records

Advertising

Völkermarkt Weather History for the Previous 24 Hours

Scroll right to see more
 ConditionsComfort  
Time TempWeatherWind HumidityBarometerVisibility
4:00 PM
Fri, Jul 29
82 °FPassing clouds.N/A36%29.90 "Hg19 mi
3:00 PM80 °FPassing clouds.N/A39%29.92 "Hg9 mi
2:00 PM78 °FPassing clouds.N/A47%29.95 "Hg19 mi
1:00 PM76 °FPassing clouds.N/A55%29.97 "Hg16 mi
12:00 PM73 °FPassing clouds.N/A66%29.99 "Hg19 mi
11:00 AM71 °FPassing clouds.N/A71%30.02 "Hg12 mi
10:00 AM68 °FPartly sunny.N/A75%30.03 "Hg19 mi
9:00 AM66 °FLow clouds.N/A83%30.03 "Hg22 mi
8:00 AM64 °FPartly sunny.N/A93%30.03 "Hg14 mi
7:00 AM64 °FLow clouds.N/A93%30.03 "Hg11 mi
6:00 AM63 °FOvercast.N/A95%30.03 "Hg7 mi
5:00 AM63 °FOvercast.N/A95%30.02 "Hg8 mi
4:00 AM64 °FLow clouds.N/A94%30.02 "Hg10 mi
3:00 AM64 °FLow clouds.N/A94%30.02 "Hg11 mi
2:00 AM64 °FPassing clouds.N/A95%30.02 "Hg12 mi
1:00 AM64 °FLow clouds.N/A93%30.03 "Hg11 mi
12:00 AM64 °FLow clouds.N/A93%30.04 "Hg14 mi
11:00 PM
Thu, Jul 28
65 °FOvercast.N/A93%30.04 "Hg16 mi
10:00 PM66 °FOvercast.N/A91%30.04 "Hg25 mi
9:00 PM66 °FLow clouds.N/A90%30.02 "Hg9 mi
8:00 PM66 °FLow clouds.N/A88%30.02 "Hg25 mi
7:00 PM67 °FLow clouds.N/A83%30.01 "Hg25 mi
6:00 PM66 °FRain showers. Low clouds.N/A84%30.00 "Hg11 mi
5:00 PM69 °FSprinkles. Overcast.N/A80%30.00 "Hg11 mi
Weather by CustomWeather, © 2016

See weather overviewHow to use our weather pages